Location: ?ejeti?ky
(50.4060°N, 14.9016°E)
Time: 11:16:50
(UTC+00:00)

SL-08 R/B - Pass Details

Date: 07 June 2020
Orbit: 674 x 739 km, 98.4° (Epoch: 10 July)

Event Time Altitude Azimuth Distance (km) Brightness Sun altitude
Rises 01:55:25 0° 175° (S) 3,032 6.2 -7.1°
Reaches altitude 10° 01:57:41 10° 180° (S) 2,115 5.4 -6.9°
Maximum altitude 02:02:13 56° 259° (W) 804 3.4 -6.4°
Drops below altitude 10° 02:06:47 10° 338° (NNW) 2,121 6.2 -5.9°
Sets 02:09:04 0° 343° (NNW) 3,042 7.0 -5.7°
